Home > Weather > Menominee > Past weeks

Flag for USA Past Weather in Menominee, Michigan, USA — Yesterday and Last 2 Weeks

Now
63 °F

Light rain. Overcast.


Feels Like: 63 °F
Forecast: 63 / 69 °F
Wind: 3 mph from West

Location: Door County Cherryland Airport

Current Time: Aug 27, 2016 at 5:19:07 AM

Latest Report: Aug 27, 2016 at 4:56 AM


Visibility: 10 mi

Pressure: 30.21 "Hg

Humidity: 97%

Dew Point: 62 °F

Location of MenomineeLocation

Past Weather in Menominee — Graph

°F

Menominee Temperature Yesterday

Maximum temperature yesterday: 72 °F (at 1:56 PM)
Minimum temperature yesterday: 58 °F (at 6:56 AM)
Average temperature yesterday: 66 °F

High & Low Weather Summary for the Past Weeks

 TemperatureHumidityPressure
High83 °F (Aug 18, 11:56 AM)100% (Aug 13, 5:56 AM)30.22 "Hg (Aug 13, 5:56 AM)
Low52 °F (Aug 22, 5:56 AM)45% (Aug 22, 2:56 PM)29.50 "Hg (Aug 20, 3:56 PM)
Average70 °F81%30.00 "Hg
* Reported Aug 12 3:56 AM — Aug 27 3:56 AM, Menominee, Weather by CustomWeather, © 2016

Note: Actual official high and low records may vary slightly from our data, if they occured in-between our weather recording intervals... More about our weather records

Advertising

Menominee Weather History for the Previous 24 Hours

Scroll right to see more
 ConditionsComfort  
Time TempWeatherWind HumidityBarometerVisibility
3:56 AM
Sat, Aug 27
62 °FOvercast.No wind96%30.18 "Hg10 mi
2:56 AM63 °FLight rain. Overcast.No wind90%30.19 "Hg10 mi
1:56 AM63 °FOvercast.3 mph90%30.20 "Hg10 mi
12:56 AM63 °FOvercast.3 mph87%30.21 "Hg10 mi
11:56 PM
Fri, Aug 26
63 °FPassing clouds.No wind84%30.21 "Hg10 mi
10:56 PM62 °FClear.3 mph86%30.21 "Hg10 mi
9:56 PM64 °FClear.5 mph81%30.22 "Hg10 mi
8:56 PM63 °FClear.5 mph84%30.21 "Hg10 mi
7:56 PM65 °FSunny.5 mph81%30.20 "Hg10 mi
6:56 PM69 °FSunny.5 mph68%30.19 "Hg10 mi
5:56 PM71 °FSunny.7 mph59%30.19 "Hg10 mi
4:56 PM72 °FSunny.6 mph57%30.18 "Hg10 mi
3:56 PM72 °FSunny.8 mph57%30.18 "Hg10 mi
2:56 PM72 °FPassing clouds.7 mph55%30.18 "Hg10 mi
1:56 PM72 °FPassing clouds.9 mph55%30.19 "Hg10 mi
12:56 PM71 °FSunny.10 mph59%30.19 "Hg10 mi
11:56 AM69 °FSunny.8 mph66%30.19 "Hg10 mi
10:56 AM67 °FSunny.8 mph68%30.20 "Hg10 mi
9:56 AM67 °FSunny.7 mph71%30.20 "Hg10 mi
8:56 AM65 °FSunny.7 mph76%30.20 "Hg10 mi
7:56 AM63 °FSunny.6 mph81%30.19 "Hg10 mi
6:56 AM58 °FClear.No wind93%30.16 "Hg10 mi
5:56 AM61 °FClear.7 mph83%30.15 "Hg10 mi
Weather by CustomWeather, © 2016

See weather overviewHow to use our weather pages